Regional Weather Roundup
Issued by NWS Newport/Morehead, NC

Current Version | Previous Version | Text Only | Print | Product List | Glossary Off
Versions: 1 2 3 4 5 6 7 8 9 10 11 12 13 14 15 16 17 18 19 20 21 22 23 24 25 26 27 28 29 30 31 32 33 34 35 36 37 38 39 40 41 42 43 44 45 46 47 48 49 50

000
ASUS42 KMHX 182212
RWRMHX
WEATHER ROUNDUP FOR EASTERN NORTH CAROLINA
NATIONAL WEATHER SERVICE NEWPORT/MOREHEAD CITY NC
600 PM EDT SAT APR 18 2015

NOTE: "FAIR" INDICATES FEW OR NO CLOUDS BELOW 12,000 FEET
WITH NO SIGNIFICANT WEATHER AND/OR OBSTRUCTIONS TO VISIBILITY

NCZ015>017-031-032-045>047-102-103-182300-
NORTH COAST

CITY           SKY/WX    TMP DP  RH WIND       PRES   REMARKS
EDENTON        CLOUDY    70  64  82 E5        29.96S
ELIZABETH CITY MOSUNNY   73  62  68 NE10      29.96R
KITTY HAWK     PTCLDY    63  58  82 NE5       29.96R
MANTEO         PTSUNNY   67  62  85 NE5       29.97R

$$

NCZ045>047-081-094-103-104-182300-
CENTRAL COAST

CITY           SKY/WX    TMP DP  RH WIND       PRES   REMARKS
FRISCO         PTSUNNY   70  62  76 SE6       29.95S
SWANQUARTER      N/A     75 N/A N/A S3G9      29.91S

$$

NCZ095-097-098-100-101-182300-
SOUTHERN COAST

CITY           SKY/WX    TMP DP  RH WIND       PRES   REMARKS
BEAUFORT       PTSUNNY   70  64  81 S5        29.94F
CEDAR ISLAND     N/A     75 N/A N/A SE9       29.97S
JACKSONVILLE   CLOUDY    71  66  84 S3        29.94S
PINEY ISLAND   MOCLDY   N/A N/A N/A SE8       29.94F
WILMINGTON     MOSUNNY   74  62  66 VRB7      29.95S


$$

NCZ011>013-027>030-043-044-078>080-089-090>093-098-182300-
COASTAL PLAIN

CITY           SKY/WX    TMP DP  RH WIND       PRES   REMARKS
AHOSKIE        MOSUNNY   73  63  72 E3        29.95S
CLINTON        CLOUDY    74  67  78 CALM      29.95S
ELIZABETHTOWN  CLOUDY    74  65  73 S5        29.95R
GOLDSBORO      MOSUNNY   78  63  60 SE1       29.92S
GREENVILLE     MOSUNNY   79  66  65 SW9       29.95R
HAVELOCK       CLOUDY    74  64  71 SW5       29.95S
KENANSVILLE    LGT RAIN  72  62  71 S3        29.95S
KINSTON        MOSUNNY   79  64  61 S5        29.95R
NEW BERN       PTSUNNY   75  65  70 S6        29.95R
RICHLANDS      PTSUNNY   72  61  68 S3        29.95S
ROCKY MOUNT    PTSUNNY   79  63  57 N5        29.93R
WASHINGTON     MOSUNNY   76  66  72 S3        29.94R
WHITEVILLE     CLOUDY    76  64  66 S5        29.93F

$$

AMZ130-135-150-152-154-156-158-170-250-252-270-ANZ085-086-088-633-658-670-182300-
MARINE OBSERVATIONS

STATION/POSITION TIME  TEMP    WIND        PRES    WAVE   SWELL
                       AIR SEA DIR/SP/G            HT/PER HT/PER
                 (UTC) (F)     (DEG/KT/KT) (MB)    (FT/S) (FT/S)
CHESAPEAKE LIGHT 2100   55      70/  9/ 10 1015.7
64 E VA BEACH    2150   58 56   40/  6/  6 1014.7    4/ 8   3/ 8
DUCK             2100   57 56   30/  5/  6 1013.7
2 E DUCK         2111      57                N/A     3/ 8   2/11
10 NE DUCK       NOT AVBL
OREGON INLET     2100   59 63   30/  8/ 10 1014.6
HATTERAS CG      2100   71 68  110/  5/  7 1013.9
DIAMOND BUOY     2150   72 75   30/  6/  6 1014.2    5/ 9   5/ 9
CAPE LOOKOUT     2200   71      CALM  /  2 1013.7
BEAUFORT LAB     2100   71 65  200/  5/  5 1013.2
27 SE WRIGHTSVLE 2100   69 73   80/  6/  8   N/A
5 SE WRIGHTSVLE  2100   68 65  100/  4/  4 1014.1
225 S CAPE HAT   2150   72 75  120/  4/  4 1013.9    5/11   5/11
41 SE CHARLESTON 2150   72 75   60/  6/  8 1013.1    3/ 8   3/ 8

$$



USA.gov is the U.S. government's official web portal to all federal, state and local government web resources and services.